DECAYED

FENGYUN 1C DEB, 30898 (Decayed)

Orbit data source: Space-Track

FENGYUN 1C DEB, 30898 was space debris in SSO originally from a launch on Mon, 10 May 1999 UTC launched from the Taiyaun Space Center, China (TSC). Fengyun 1C debris stems from the Chinese weather satellite Fengyun-1C, which was intentionally destroyed by a Chinese anti-satellite missile in 2007. This event dramatically increased the amount of space debris, with thousands of trackable fragments posing hazards to satellites and human spaceflight. The Fengyun 1C debris cloud has become a focal point in discussions about space sustainability and the need for international regulations to prevent the creation of new debris.

Not visible in the next 10 days
Identifier
30898, 1999-025AYL
Orbit
Decayed
Country
Flag of CNCN / PRC
Related business
Manufacturer
Unknown
Mission
Decayed spacecraft
Bus & Motor
Unknown
Mass
Unknown
Launch date (UTC)
1999-05-10 (27 years ago)
Launch vehicle
Unknown
Launch site
Taiyaun Space Center, China (TSC)
Object type
Payload
Rocket body
Debris
Shape & HBR
Unknown shape, 0.1 m
Radar Cross Section
Small (<0.1 m²)

Expand to show TLE details & history
Last TLE update: 4 months ago

TLE from 4 months ago
0 FENGYUN 1C DEB
1 30898U 99025AYL 26038.05823953  .00331482  00000-0  77123-2 0  9990
2 30898  99.0236 326.4374 0018299 298.6181  61.3220 15.40842654672325
Epoch: 2026-02-07T01:23Z
TLE epoch observation values (Epoch: 2026-02-07T01:23:51.895Z)
Latitude
0.00006°
Longitude
168.28395°
Altitude
440.714 km
Speed
7.651 km/s
True Right ascension
21h 45m 44s
True Declination
0° 00' 00"
Sunlit
Object was in daylight at epoch
Visualization orbit readout
Latitude
Unknown
Longitude
Unknown
Altitude
Unknown
Speed
Unknown
Apparent Right ascension
Unknown
Apparent Declination
Unknown
Sunlit
N/A
Visualization observer readout
Local Sidereal Time
18:33:58
Azimuth
Unknown
Elevation
Unknown
Doppler factor
Unknown
Orbital elements
Apogee altitude
453.114 km
Perigee altitude
428.159 km
Semi-major axis
6,818.773 km
Eccentricity
0.00183
Inclination
99.0236°
RAAN
326.4374°
Arg. of periapsis
298.6181°
True anomaly
61.50617°
Mean anomaly
61.322°
Eccentric anomaly
61.41406°
Mean motion
3.85464 °/min
Orbital period
93.39 mins
BSTAR
0.0077123
Loading maneuver chart data...
Computing Atmospheric mass density...
Loading historical data...
Loading historical data...
Loading historical data...
Loading historical data...
Loading historical data...
Loading historical data...
Loading historical data...

Documentation

Showing up to 5 results
|